owner,sensor,date,latitude,longitude,vertical_datum,sea_water_practical_salinity,qcFlag 
ENP,ioos.station.NOAA.NDBC:MUKF1:1,2019-07-01T18:00:00Z,25.1060,-80.9420,1.5,36.8,11111222 
ENP,ioos.station.NOAA.NDBC:MUKF1:1,2019-07-01T19:00:00Z,25.1060,-80.9420,1.5,36.88,11111222 
ENP,ioos.station.NOAA.NDBC:MUKF1:1,2019-07-01T20:00:00Z,25.1060,-80.9420,1.5,36.91,11111222 
ENP,ioos.station.NOAA.NDBC:MUKF1:1,2019-07-01T21:00:00Z,25.1060,-80.9420,1.5,36.95,11111222 
ENP,ioos.station.NOAA.NDBC:MUKF1:1,2019-07-01T22:00:00Z,25.1060,-80.9420,1.5,36.86,11111222 
ENP,ioos.station.NOAA.NDBC:MUKF1:1,2019-07-01T23:00:00Z,25.1060,-80.9420,1.5,36.8,11111222 
ENP,ioos.station.NOAA.NDBC:MUKF1:1,2019-07-02T00:00:00Z,25.1060,-80.9420,1.5,36.74,11111222 
ENP,ioos.station.NOAA.NDBC:MUKF1:1,2019-07-02T15:00:00Z,25.1060,-80.9420,1.5,36.93,11111222 
ENP,ioos.station.NOAA.NDBC:MUKF1:1,2019-07-02T16:00:00Z,25.1060,-80.9420,1.5,36.76,11111222 
ENP,ioos.station.NOAA.NDBC:MUKF1:1,2019-07-02T17:00:00Z,25.1060,-80.9420,1.5,36.9,11111222 
ENP,ioos.station.NOAA.NDBC:MUKF1:1,2019-07-02T18:00:00Z,25.1060,-80.9420,1.5,36.96,11111222 
ENP,ioos.station.NOAA.NDBC:MUKF1:1,2019-07-02T19:00:00Z,25.1060,-80.9420,1.5,36.95,11111222 
ENP,ioos.station.NOAA.NDBC:MUKF1:1,2019-07-02T20:00:00Z,25.1060,-80.9420,1.5,36.95,11111222 
ENP,ioos.station.NOAA.NDBC:MUKF1:1,2019-07-02T21:00:00Z,25.1060,-80.9420,1.5,36.84,11111222 
ENP,ioos.station.NOAA.NDBC:MUKF1:1,2019-07-02T22:00:00Z,25.1060,-80.9420,1.5,36.89,11111222 
ENP,ioos.station.NOAA.NDBC:MUKF1:1,2019-07-02T23:00:00Z,25.1060,-80.9420,1.5,36.95,11111222 
ENP,ioos.station.NOAA.NDBC:MUKF1:1,2019-07-03T00:00:00Z,25.1060,-80.9420,1.5,36.94,11111222 
ENP,ioos.station.NOAA.NDBC:MUKF1:1,2019-07-03T01:00:00Z,25.1060,-80.9420,1.5,37.03,11111222 
ENP,ioos.station.NOAA.NDBC:MUKF1:1,2019-07-03T02:00:00Z,25.1060,-80.9420,1.5,37.07,11111222 
ENP,ioos.station.NOAA.NDBC:MUKF1:1,2019-07-03T03:00:00Z,25.1060,-80.9420,1.5,37.2,11111222 
ENP,ioos.station.NOAA.NDBC:MUKF1:1,2019-07-03T04:00:00Z,25.1060,-80.9420,1.5,37.18,11111222 
ENP,ioos.station.NOAA.NDBC:MUKF1:1,2019-07-03T05:00:00Z,25.1060,-80.9420,1.5,37.2,11111222 
ENP,ioos.station.NOAA.NDBC:MUKF1:1,2019-07-03T06:00:00Z,25.1060,-80.9420,1.5,37.05,11111222 
ENP,ioos.station.NOAA.NDBC:MUKF1:1,2019-07-03T07:00:00Z,25.1060,-80.9420,1.5,37.06,11111222 
ENP,ioos.station.NOAA.NDBC:MUKF1:1,2019-07-03T08:00:00Z,25.1060,-80.9420,1.5,37.12,11111222 
ENP,ioos.station.NOAA.NDBC:MUKF1:1,2019-07-03T09:00:00Z,25.1060,-80.9420,1.5,37.03,11111222 
ENP,ioos.station.NOAA.NDBC:MUKF1:1,2019-07-03T10:00:00Z,25.1060,-80.9420,1.5,37.03,11111222 
ENP,ioos.station.NOAA.NDBC:MUKF1:1,2019-07-03T11:00:00Z,25.1060,-80.9420,1.5,37.07,11111222 
ENP,ioos.station.NOAA.NDBC:MUKF1:1,2019-07-03T12:00:00Z,25.1060,-80.9420,1.5,37.08,11111222 
ENP,ioos.station.NOAA.NDBC:MUKF1:1,2019-07-03T13:00:00Z,25.1060,-80.9420,1.5,37.04,11111222 
ENP,ioos.station.NOAA.NDBC:MUKF1:1,2019-07-03T14:00:00Z,25.1060,-80.9420,1.5,37.1,11111222 
ENP,ioos.station.NOAA.NDBC:MUKF1:1,2019-07-03T15:00:00Z,25.1060,-80.9420,1.5,37.01,11111222 
ENP,ioos.station.NOAA.NDBC:MUKF1:1,2019-07-03T16:00:00Z,25.1060,-80.9420,1.5,37.01,11111222 
ENP,ioos.station.NOAA.NDBC:MUKF1:1,2019-07-03T17:00:00Z,25.1060,-80.9420,1.5,37.0,11111222 
ENP,ioos.station.NOAA.NDBC:MUKF1:1,2019-07-03T18:00:00Z,25.1060,-80.9420,1.5,36.83,11111222 
ENP,ioos.station.NOAA.NDBC:MUKF1:1,2019-07-03T19:00:00Z,25.1060,-80.9420,1.5,36.51,11111222 
ENP,ioos.station.NOAA.NDBC:MUKF1:1,2019-07-03T20:00:00Z,25.1060,-80.9420,1.5,36.3,11111222 
ENP,ioos.station.NOAA.NDBC:MUKF1:1,2019-07-03T21:00:00Z,25.1060,-80.9420,1.5,36.4,11111222 
ENP,ioos.station.NOAA.NDBC:MUKF1:1,2019-07-03T22:00:00Z,25.1060,-80.9420,1.5,36.17,11111222 
ENP,ioos.station.NOAA.NDBC:MUKF1:1,2019-07-03T23:00:00Z,25.1060,-80.9420,1.5,36.08,11111222 
ENP,ioos.station.NOAA.NDBC:MUKF1:1,2019-07-04T00:00:00Z,25.1060,-80.9420,1.5,35.85,11111222 
ENP,ioos.station.NOAA.NDBC:MUKF1:1,2019-07-04T01:00:00Z,25.1060,-80.9420,1.5,35.67,11111222 
ENP,ioos.station.NOAA.NDBC:MUKF1:1,2019-07-04T02:00:00Z,25.1060,-80.9420,1.5,35.12,11111222 
ENP,ioos.station.NOAA.NDBC:MUKF1:1,2019-07-04T03:00:00Z,25.1060,-80.9420,1.5,35.0,11111222 
ENP,ioos.station.NOAA.NDBC:MUKF1:1,2019-07-04T04:00:00Z,25.1060,-80.9420,1.5,35.09,11111222 
ENP,ioos.station.NOAA.NDBC:MUKF1:1,2019-07-04T05:00:00Z,25.1060,-80.9420,1.5,35.1,11111222 
ENP,ioos.station.NOAA.NDBC:MUKF1:1,2019-07-04T06:00:00Z,25.1060,-80.9420,1.5,35.68,11111222 
ENP,ioos.station.NOAA.NDBC:MUKF1:1,2019-07-04T07:00:00Z,25.1060,-80.9420,1.5,36.17,11111222 
ENP,ioos.station.NOAA.NDBC:MUKF1:1,2019-07-04T08:00:00Z,25.1060,-80.9420,1.5,35.81,11111222 
ENP,ioos.station.NOAA.NDBC:MUKF1:1,2019-07-04T09:00:00Z,25.1060,-80.9420,1.5,35.55,11111222 
ENP,ioos.station.NOAA.NDBC:MUKF1:1,2019-07-04T10:00:00Z,25.1060,-80.9420,1.5,36.43,11111222 
ENP,ioos.station.NOAA.NDBC:MUKF1:1,2019-07-04T11:00:00Z,25.1060,-80.9420,1.5,36.45,11111222 
ENP,ioos.station.NOAA.NDBC:MUKF1:1,2019-07-04T12:00:00Z,25.1060,-80.9420,1.5,36.14,11111222 
ENP,ioos.station.NOAA.NDBC:MUKF1:1,2019-07-04T13:00:00Z,25.1060,-80.9420,1.5,35.65,11111222 
ENP,ioos.station.NOAA.NDBC:MUKF1:1,2019-07-04T14:00:00Z,25.1060,-80.9420,1.5,35.86,11111222 
ENP,ioos.station.NOAA.NDBC:MUKF1:1,2019-07-04T15:00:00Z,25.1060,-80.9420,1.5,35.86,11111222 
ENP,ioos.station.NOAA.NDBC:MUKF1:1,2019-07-04T16:00:00Z,25.1060,-80.9420,1.5,35.71,11111222 
ENP,ioos.station.NOAA.NDBC:MUKF1:1,2019-07-04T17:00:00Z,25.1060,-80.9420,1.5,35.84,11111222 
ENP,ioos.station.NOAA.NDBC:MUKF1:1,2019-07-04T18:00:00Z,25.1060,-80.9420,1.5,35.66,11111222 
ENP,ioos.station.NOAA.NDBC:MUKF1:1,2019-07-04T19:00:00Z,25.1060,-80.9420,1.5,36.37,11111222 
ENP,ioos.station.NOAA.NDBC:MUKF1:1,2019-07-04T20:00:00Z,25.1060,-80.9420,1.5,36.32,11111222 
ENP,ioos.station.NOAA.NDBC:MUKF1:1,2019-07-04T21:00:00Z,25.1060,-80.9420,1.5,36.26,11111222 
ENP,ioos.station.NOAA.NDBC:MUKF1:1,2019-07-04T22:00:00Z,25.1060,-80.9420,1.5,36.34,11111222 
ENP,ioos.station.NOAA.NDBC:MUKF1:1,2019-07-04T23:00:00Z,25.1060,-80.9420,1.5,36.36,11111222 
ENP,ioos.station.NOAA.NDBC:MUKF1:1,2019-07-05T00:00:00Z,25.1060,-80.9420,1.5,36.51,11111222 
ENP,ioos.station.NOAA.NDBC:MUKF1:1,2019-07-05T01:00:00Z,25.1060,-80.9420,1.5,36.52,11111222 
ENP,ioos.station.NOAA.NDBC:MUKF1:1,2019-07-05T02:00:00Z,25.1060,-80.9420,1.5,36.41,11111222 
ENP,ioos.station.NOAA.NDBC:MUKF1:1,2019-07-05T03:00:00Z,25.1060,-80.9420,1.5,36.3,11111222 
ENP,ioos.station.NOAA.NDBC:MUKF1:1,2019-07-05T04:00:00Z,25.1060,-80.9420,1.5,36.21,11111222 
ENP,ioos.station.NOAA.NDBC:MUKF1:1,2019-07-05T05:00:00Z,25.1060,-80.9420,1.5,36.3,11111222 
ENP,ioos.station.NOAA.NDBC:MUKF1:1,2019-07-05T06:00:00Z,25.1060,-80.9420,1.5,36.31,11111222 
ENP,ioos.station.NOAA.NDBC:MUKF1:1,2019-07-05T07:00:00Z,25.1060,-80.9420,1.5,36.48,11111222 
ENP,ioos.station.NOAA.NDBC:MUKF1:1,2019-07-05T08:00:00Z,25.1060,-80.9420,1.5,36.71,11111222 
ENP,ioos.station.NOAA.NDBC:MUKF1:1,2019-07-05T09:00:00Z,25.1060,-80.9420,1.5,36.36,11111222 
ENP,ioos.station.NOAA.NDBC:MUKF1:1,2019-07-05T10:00:00Z,25.1060,-80.9420,1.5,36.45,11111222 
ENP,ioos.station.NOAA.NDBC:MUKF1:1,2019-07-05T11:00:00Z,25.1060,-80.9420,1.5,36.73,11111222 
ENP,ioos.station.NOAA.NDBC:MUKF1:1,2019-07-05T12:00:00Z,25.1060,-80.9420,1.5,36.61,11111222 
ENP,ioos.station.NOAA.NDBC:MUKF1:1,2019-07-05T13:00:00Z,25.1060,-80.9420,1.5,36.33,11111222 
ENP,ioos.station.NOAA.NDBC:MUKF1:1,2019-07-05T14:00:00Z,25.1060,-80.9420,1.5,36.34,11111222 
ENP,ioos.station.NOAA.NDBC:MUKF1:1,2019-07-05T15:00:00Z,25.1060,-80.9420,1.5,36.48,11111222 
ENP,ioos.station.NOAA.NDBC:MUKF1:1,2019-07-05T16:00:00Z,25.1060,-80.9420,1.5,36.45,11111222 
ENP,ioos.station.NOAA.NDBC:MUKF1:1,2019-07-05T17:00:00Z,25.1060,-80.9420,1.5,36.36,11111222 
ENP,ioos.station.NOAA.NDBC:MUKF1:1,2019-07-05T18:00:00Z,25.1060,-80.9420,1.5,36.38,11111222 
ENP,ioos.station.NOAA.NDBC:MUKF1:1,2019-07-05T19:00:00Z,25.1060,-80.9420,1.5,36.34,11111222 
ENP,ioos.station.NOAA.NDBC:MUKF1:1,2019-07-05T20:00:00Z,25.1060,-80.9420,1.5,36.6,11111222 
ENP,ioos.station.NOAA.NDBC:MUKF1:1,2019-07-05T21:00:00Z,25.1060,-80.9420,1.5,36.4,11111222 
ENP,ioos.station.NOAA.NDBC:MUKF1:1,2019-07-05T22:00:00Z,25.1060,-80.9420,1.5,36.33,11111222 
ENP,ioos.station.NOAA.NDBC:MUKF1:1,2019-07-05T23:00:00Z,25.1060,-80.9420,1.5,36.53,11111222 
ENP,ioos.station.NOAA.NDBC:MUKF1:1,2019-07-06T00:00:00Z,25.1060,-80.9420,1.5,36.37,11111222 
ENP,ioos.station.NOAA.NDBC:MUKF1:1,2019-07-06T01:00:00Z,25.1060,-80.9420,1.5,36.5,11111222 
ENP,ioos.station.NOAA.NDBC:MUKF1:1,2019-07-06T02:00:00Z,25.1060,-80.9420,1.5,36.73,11111222 
ENP,ioos.station.NOAA.NDBC:MUKF1:1,2019-07-06T03:00:00Z,25.1060,-80.9420,1.5,36.6,11111222 
ENP,ioos.station.NOAA.NDBC:MUKF1:1,2019-07-06T04:00:00Z,25.1060,-80.9420,1.5,36.59,11111222 
ENP,ioos.station.NOAA.NDBC:MUKF1:1,2019-07-06T05:00:00Z,25.1060,-80.9420,1.5,36.63,11111222 
ENP,ioos.station.NOAA.NDBC:MUKF1:1,2019-07-06T06:00:00Z,25.1060,-80.9420,1.5,36.71,11111222 
ENP,ioos.station.NOAA.NDBC:MUKF1:1,2019-07-06T07:00:00Z,25.1060,-80.9420,1.5,36.73,11111222 
ENP,ioos.station.NOAA.NDBC:MUKF1:1,2019-07-06T08:00:00Z,25.1060,-80.9420,1.5,37.01,11111222 
ENP,ioos.station.NOAA.NDBC:MUKF1:1,2019-07-06T09:00:00Z,25.1060,-80.9420,1.5,37.03,11111222 
ENP,ioos.station.NOAA.NDBC:MUKF1:1,2019-07-06T10:00:00Z,25.1060,-80.9420,1.5,36.69,11111222 
ENP,ioos.station.NOAA.NDBC:MUKF1:1,2019-07-06T11:00:00Z,25.1060,-80.9420,1.5,36.64,11111222 
ENP,ioos.station.NOAA.NDBC:MUKF1:1,2019-07-06T12:00:00Z,25.1060,-80.9420,1.5,36.72,11111222 
ENP,ioos.station.NOAA.NDBC:MUKF1:1,2019-07-06T13:00:00Z,25.1060,-80.9420,1.5,36.68,11111222 
ENP,ioos.station.NOAA.NDBC:MUKF1:1,2019-07-06T14:00:00Z,25.1060,-80.9420,1.5,36.82,11111222 
ENP,ioos.station.NOAA.NDBC:MUKF1:1,2019-07-06T15:00:00Z,25.1060,-80.9420,1.5,37.01,11111222 
ENP,ioos.station.NOAA.NDBC:MUKF1:1,2019-07-06T16:00:00Z,25.1060,-80.9420,1.5,37.1,11111222 
ENP,ioos.station.NOAA.NDBC:MUKF1:1,2019-07-06T17:00:00Z,25.1060,-80.9420,1.5,36.91,11111222 
ENP,ioos.station.NOAA.NDBC:MUKF1:1,2019-07-06T18:00:00Z,25.1060,-80.9420,1.5,36.77,11111222 
ENP,ioos.station.NOAA.NDBC:MUKF1:1,2019-07-06T19:00:00Z,25.1060,-80.9420,1.5,36.74,11111222 
ENP,ioos.station.NOAA.NDBC:MUKF1:1,2019-07-06T20:00:00Z,25.1060,-80.9420,1.5,36.69,11111222 
ENP,ioos.station.NOAA.NDBC:MUKF1:1,2019-07-06T21:00:00Z,25.1060,-80.9420,1.5,36.16,11111222 
ENP,ioos.station.NOAA.NDBC:MUKF1:1,2019-07-06T22:00:00Z,25.1060,-80.9420,1.5,36.25,11111222 
ENP,ioos.station.NOAA.NDBC:MUKF1:1,2019-07-06T23:00:00Z,25.1060,-80.9420,1.5,36.0,11111222 
ENP,ioos.station.NOAA.NDBC:MUKF1:1,2019-07-07T00:00:00Z,25.1060,-80.9420,1.5,36.16,11111222 
ENP,ioos.station.NOAA.NDBC:MUKF1:1,2019-07-07T01:00:00Z,25.1060,-80.9420,1.5,36.21,11111222 
ENP,ioos.station.NOAA.NDBC:MUKF1:1,2019-07-07T02:00:00Z,25.1060,-80.9420,1.5,36.28,11111222 
ENP,ioos.station.NOAA.NDBC:MUKF1:1,2019-07-07T03:00:00Z,25.1060,-80.9420,1.5,36.2,11111222 
ENP,ioos.station.NOAA.NDBC:MUKF1:1,2019-07-07T04:00:00Z,25.1060,-80.9420,1.5,36.26,11111222 
ENP,ioos.station.NOAA.NDBC:MUKF1:1,2019-07-07T05:00:00Z,25.1060,-80.9420,1.5,36.22,11111222 
ENP,ioos.station.NOAA.NDBC:MUKF1:1,2019-07-07T06:00:00Z,25.1060,-80.9420,1.5,36.19,11111222 
ENP,ioos.station.NOAA.NDBC:MUKF1:1,2019-07-07T07:00:00Z,25.1060,-80.9420,1.5,36.22,11111222 
ENP,ioos.station.NOAA.NDBC:MUKF1:1,2019-07-07T08:00:00Z,25.1060,-80.9420,1.5,36.11,11111222 
ENP,ioos.station.NOAA.NDBC:MUKF1:1,2019-07-07T09:00:00Z,25.1060,-80.9420,1.5,35.99,11111222 
ENP,ioos.station.NOAA.NDBC:MUKF1:1,2019-07-07T10:00:00Z,25.1060,-80.9420,1.5,36.34,11111222 
ENP,ioos.station.NOAA.NDBC:MUKF1:1,2019-07-07T11:00:00Z,25.1060,-80.9420,1.5,35.97,11111222 
ENP,ioos.station.NOAA.NDBC:MUKF1:1,2019-07-07T12:00:00Z,25.1060,-80.9420,1.5,36.23,11111222 
ENP,ioos.station.NOAA.NDBC:MUKF1:1,2019-07-07T13:00:00Z,25.1060,-80.9420,1.5,36.08,11111222 
ENP,ioos.station.NOAA.NDBC:MUKF1:1,2019-07-07T14:00:00Z,25.1060,-80.9420,1.5,36.35,11111222 
ENP,ioos.station.NOAA.NDBC:MUKF1:1,2019-07-07T15:00:00Z,25.1060,-80.9420,1.5,36.05,11111222 
ENP,ioos.station.NOAA.NDBC:MUKF1:1,2019-07-07T16:00:00Z,25.1060,-80.9420,1.5,35.95,11111222 
ENP,ioos.station.NOAA.NDBC:MUKF1:1,2019-07-07T17:00:00Z,25.1060,-80.9420,1.5,35.97,11111222 
ENP,ioos.station.NOAA.NDBC:MUKF1:1,2019-07-07T18:00:00Z,25.1060,-80.9420,1.5,36.11,11111222 
ENP,ioos.station.NOAA.NDBC:MUKF1:1,2019-07-07T19:00:00Z,25.1060,-80.9420,1.5,36.09,11111222 
ENP,ioos.station.NOAA.NDBC:MUKF1:1,2019-07-07T20:00:00Z,25.1060,-80.9420,1.5,35.89,11111222 
ENP,ioos.station.NOAA.NDBC:MUKF1:1,2019-07-07T21:00:00Z,25.1060,-80.9420,1.5,35.97,11111222 
ENP,ioos.station.NOAA.NDBC:MUKF1:1,2019-07-07T22:00:00Z,25.1060,-80.9420,1.5,36.26,11111222 
ENP,ioos.station.NOAA.NDBC:MUKF1:1,2019-07-07T23:00:00Z,25.1060,-80.9420,1.5,36.0,11111222 
ENP,ioos.station.NOAA.NDBC:MUKF1:1,2019-07-08T00:00:00Z,25.1060,-80.9420,1.5,35.96,11111222 
ENP,ioos.station.NOAA.NDBC:MUKF1:1,2019-07-08T01:00:00Z,25.1060,-80.9420,1.5,36.0,11111222 
ENP,ioos.station.NOAA.NDBC:MUKF1:1,2019-07-08T02:00:00Z,25.1060,-80.9420,1.5,36.03,11111222 
ENP,ioos.station.NOAA.NDBC:MUKF1:1,2019-07-08T03:00:00Z,25.1060,-80.9420,1.5,36.0,11111222 
ENP,ioos.station.NOAA.NDBC:MUKF1:1,2019-07-08T04:00:00Z,25.1060,-80.9420,1.5,36.11,11111222 
ENP,ioos.station.NOAA.NDBC:MUKF1:1,2019-07-08T05:00:00Z,25.1060,-80.9420,1.5,36.13,11111222 
ENP,ioos.station.NOAA.NDBC:MUKF1:1,2019-07-08T06:00:00Z,25.1060,-80.9420,1.5,36.16,11111222 
ENP,ioos.station.NOAA.NDBC:MUKF1:1,2019-07-08T07:00:00Z,25.1060,-80.9420,1.5,36.23,11111222 
ENP,ioos.station.NOAA.NDBC:MUKF1:1,2019-07-08T08:00:00Z,25.1060,-80.9420,1.5,36.24,11111222 
ENP,ioos.station.NOAA.NDBC:MUKF1:1,2019-07-08T09:00:00Z,25.1060,-80.9420,1.5,36.29,11111222 
ENP,ioos.station.NOAA.NDBC:MUKF1:1,2019-07-08T10:00:00Z,25.1060,-80.9420,1.5,36.2,11111222 
ENP,ioos.station.NOAA.NDBC:MUKF1:1,2019-07-08T11:00:00Z,25.1060,-80.9420,1.5,36.16,11111222 
ENP,ioos.station.NOAA.NDBC:MUKF1:1,2019-07-08T12:00:00Z,25.1060,-80.9420,1.5,36.03,11111222 
ENP,ioos.station.NOAA.NDBC:MUKF1:1,2019-07-08T13:00:00Z,25.1060,-80.9420,1.5,36.15,11111222 
ENP,ioos.station.NOAA.NDBC:MUKF1:1,2019-07-08T14:00:00Z,25.1060,-80.9420,1.5,36.06,11111222 
ENP,ioos.station.NOAA.NDBC:MUKF1:1,2019-07-08T15:00:00Z,25.1060,-80.9420,1.5,36.03,11111222 
ENP,ioos.station.NOAA.NDBC:MUKF1:1,2019-07-08T16:00:00Z,25.1060,-80.9420,1.5,36.09,11111222 
ENP,ioos.station.NOAA.NDBC:MUKF1:1,2019-07-08T17:00:00Z,25.1060,-80.9420,1.5,35.98,11111222 
ENP,ioos.station.NOAA.NDBC:MUKF1:1,2019-07-08T18:00:00Z,25.1060,-80.9420,1.5,35.95,11111222 
ENP,ioos.station.NOAA.NDBC:MUKF1:1,2019-07-08T19:00:00Z,25.1060,-80.9420,1.5,34.94,11111222 
ENP,ioos.station.NOAA.NDBC:MUKF1:1,2019-07-08T20:00:00Z,25.1060,-80.9420,1.5,34.85,11111222 
ENP,ioos.station.NOAA.NDBC:MUKF1:1,2019-07-08T21:00:00Z,25.1060,-80.9420,1.5,35.21,11111222 
ENP,ioos.station.NOAA.NDBC:MUKF1:1,2019-07-08T22:00:00Z,25.1060,-80.9420,1.5,35.56,11111222 
ENP,ioos.station.NOAA.NDBC:MUKF1:1,2019-07-08T23:00:00Z,25.1060,-80.9420,1.5,35.68,11111222 
ENP,ioos.station.NOAA.NDBC:MUKF1:1,2019-07-09T00:00:00Z,25.1060,-80.9420,1.5,35.88,11111222 
ENP,ioos.station.NOAA.NDBC:MUKF1:1,2019-07-09T01:00:00Z,25.1060,-80.9420,1.5,36.02,11111222 
ENP,ioos.station.NOAA.NDBC:MUKF1:1,2019-07-09T02:00:00Z,25.1060,-80.9420,1.5,35.97,11111222 
ENP,ioos.station.NOAA.NDBC:MUKF1:1,2019-07-09T03:00:00Z,25.1060,-80.9420,1.5,35.9,11111222 
ENP,ioos.station.NOAA.NDBC:MUKF1:1,2019-07-09T04:00:00Z,25.1060,-80.9420,1.5,35.85,11111222 
ENP,ioos.station.NOAA.NDBC:MUKF1:1,2019-07-09T05:00:00Z,25.1060,-80.9420,1.5,35.82,11111222 
ENP,ioos.station.NOAA.NDBC:MUKF1:1,2019-07-09T06:00:00Z,25.1060,-80.9420,1.5,35.97,11111222 
ENP,ioos.station.NOAA.NDBC:MUKF1:1,2019-07-09T07:00:00Z,25.1060,-80.9420,1.5,35.83,11111222 
ENP,ioos.station.NOAA.NDBC:MUKF1:1,2019-07-09T08:00:00Z,25.1060,-80.9420,1.5,35.79,11111222 
ENP,ioos.station.NOAA.NDBC:MUKF1:1,2019-07-09T09:00:00Z,25.1060,-80.9420,1.5,35.65,11111222 
ENP,ioos.station.NOAA.NDBC:MUKF1:1,2019-07-09T10:00:00Z,25.1060,-80.9420,1.5,35.88,11111222 
ENP,ioos.station.NOAA.NDBC:MUKF1:1,2019-07-09T11:00:00Z,25.1060,-80.9420,1.5,35.9,11111222 
ENP,ioos.station.NOAA.NDBC:MUKF1:1,2019-07-09T12:00:00Z,25.1060,-80.9420,1.5,35.89,11111222 
ENP,ioos.station.NOAA.NDBC:MUKF1:1,2019-07-09T13:00:00Z,25.1060,-80.9420,1.5,36.1,11111222 
ENP,ioos.station.NOAA.NDBC:MUKF1:1,2019-07-09T14:00:00Z,25.1060,-80.9420,1.5,35.93,11111222 
ENP,ioos.station.NOAA.NDBC:MUKF1:1,2019-07-09T15:00:00Z,25.1060,-80.9420,1.5,35.94,11111222 
ENP,ioos.station.NOAA.NDBC:MUKF1:1,2019-07-09T16:00:00Z,25.1060,-80.9420,1.5,35.85,11111222 
ENP,ioos.station.NOAA.NDBC:MUKF1:1,2019-07-09T17:00:00Z,25.1060,-80.9420,1.5,36.02,11111222 
ENP,ioos.station.NOAA.NDBC:MUKF1:1,2019-07-09T18:00:00Z,25.1060,-80.9420,1.5,35.98,11111222 
ENP,ioos.station.NOAA.NDBC:MUKF1:1,2019-07-09T19:00:00Z,25.1060,-80.9420,1.5,36.0,11111222 
ENP,ioos.station.NOAA.NDBC:MUKF1:1,2019-07-09T20:00:00Z,25.1060,-80.9420,1.5,35.97,11111222 
ENP,ioos.station.NOAA.NDBC:MUKF1:1,2019-07-09T21:00:00Z,25.1060,-80.9420,1.5,35.75,11111222 
ENP,ioos.station.NOAA.NDBC:MUKF1:1,2019-07-09T22:00:00Z,25.1060,-80.9420,1.5,35.87,11111222 
ENP,ioos.station.NOAA.NDBC:MUKF1:1,2019-07-09T23:00:00Z,25.1060,-80.9420,1.5,35.89,11111222 
ENP,ioos.station.NOAA.NDBC:MUKF1:1,2019-07-10T00:00:00Z,25.1060,-80.9420,1.5,35.93,11111222 
ENP,ioos.station.NOAA.NDBC:MUKF1:1,2019-07-10T01:00:00Z,25.1060,-80.9420,1.5,35.74,11111222 
ENP,ioos.station.NOAA.NDBC:MUKF1:1,2019-07-10T02:00:00Z,25.1060,-80.9420,1.5,35.82,11111222 
ENP,ioos.station.NOAA.NDBC:MUKF1:1,2019-07-10T03:00:00Z,25.1060,-80.9420,1.5,35.9,11111222 
ENP,ioos.station.NOAA.NDBC:MUKF1:1,2019-07-10T04:00:00Z,25.1060,-80.9420,1.5,35.87,11111222 
ENP,ioos.station.NOAA.NDBC:MUKF1:1,2019-07-10T05:00:00Z,25.1060,-80.9420,1.5,35.81,11111222 
ENP,ioos.station.NOAA.NDBC:MUKF1:1,2019-07-10T06:00:00Z,25.1060,-80.9420,1.5,35.91,11111222 
ENP,ioos.station.NOAA.NDBC:MUKF1:1,2019-07-10T07:00:00Z,25.1060,-80.9420,1.5,36.04,11111222 
ENP,ioos.station.NOAA.NDBC:MUKF1:1,2019-07-10T08:00:00Z,25.1060,-80.9420,1.5,35.99,11111222 
ENP,ioos.station.NOAA.NDBC:MUKF1:1,2019-07-10T09:00:00Z,25.1060,-80.9420,1.5,36.08,11111222 
ENP,ioos.station.NOAA.NDBC:MUKF1:1,2019-07-10T10:00:00Z,25.1060,-80.9420,1.5,35.99,11111222 
ENP,ioos.station.NOAA.NDBC:MUKF1:1,2019-07-10T11:00:00Z,25.1060,-80.9420,1.5,36.03,11111222 
ENP,ioos.station.NOAA.NDBC:MUKF1:1,2019-07-10T12:00:00Z,25.1060,-80.9420,1.5,36.07,11111222 
ENP,ioos.station.NOAA.NDBC:MUKF1:1,2019-07-10T13:00:00Z,25.1060,-80.9420,1.5,35.85,11111222 
ENP,ioos.station.NOAA.NDBC:MUKF1:1,2019-07-10T14:00:00Z,25.1060,-80.9420,1.5,35.96,11111222 
ENP,ioos.station.NOAA.NDBC:MUKF1:1,2019-07-10T15:00:00Z,25.1060,-80.9420,1.5,35.87,11111222 
ENP,ioos.station.NOAA.NDBC:MUKF1:1,2019-07-10T16:00:00Z,25.1060,-80.9420,1.5,35.85,11111222 
ENP,ioos.station.NOAA.NDBC:MUKF1:1,2019-07-10T17:00:00Z,25.1060,-80.9420,1.5,35.85,11111222 
ENP,ioos.station.NOAA.NDBC:MUKF1:1,2019-07-10T18:00:00Z,25.1060,-80.9420,1.5,35.8,11111222 
ENP,ioos.station.NOAA.NDBC:MUKF1:1,2019-07-10T19:00:00Z,25.1060,-80.9420,1.5,35.9,11111222 
ENP,ioos.station.NOAA.NDBC:MUKF1:1,2019-07-10T20:00:00Z,25.1060,-80.9420,1.5,35.94,11111222 
ENP,ioos.station.NOAA.NDBC:MUKF1:1,2019-07-10T21:00:00Z,25.1060,-80.9420,1.5,36.05,11111222 
ENP,ioos.station.NOAA.NDBC:MUKF1:1,2019-07-10T22:00:00Z,25.1060,-80.9420,1.5,36.07,11111222 
ENP,ioos.station.NOAA.NDBC:MUKF1:1,2019-07-10T23:00:00Z,25.1060,-80.9420,1.5,35.97,11111222 
ENP,ioos.station.NOAA.NDBC:MUKF1:1,2019-07-11T00:00:00Z,25.1060,-80.9420,1.5,35.97,11111222 
ENP,ioos.station.NOAA.NDBC:MUKF1:1,2019-07-11T01:00:00Z,25.1060,-80.9420,1.5,35.8,11111222 
ENP,ioos.station.NOAA.NDBC:MUKF1:1,2019-07-11T02:00:00Z,25.1060,-80.9420,1.5,35.97,11111222 
ENP,ioos.station.NOAA.NDBC:MUKF1:1,2019-07-11T03:00:00Z,25.1060,-80.9420,1.5,36.1,11111222 
ENP,ioos.station.NOAA.NDBC:MUKF1:1,2019-07-11T04:00:00Z,25.1060,-80.9420,1.5,35.97,11111222 
ENP,ioos.station.NOAA.NDBC:MUKF1:1,2019-07-11T05:00:00Z,25.1060,-80.9420,1.5,35.94,11111222 
ENP,ioos.station.NOAA.NDBC:MUKF1:1,2019-07-11T06:00:00Z,25.1060,-80.9420,1.5,36.13,11111222 
ENP,ioos.station.NOAA.NDBC:MUKF1:1,2019-07-11T07:00:00Z,25.1060,-80.9420,1.5,36.04,11111222 
ENP,ioos.station.NOAA.NDBC:MUKF1:1,2019-07-11T08:00:00Z,25.1060,-80.9420,1.5,36.07,11111222 
ENP,ioos.station.NOAA.NDBC:MUKF1:1,2019-07-11T09:00:00Z,25.1060,-80.9420,1.5,36.19,11111222 
ENP,ioos.station.NOAA.NDBC:MUKF1:1,2019-07-11T10:00:00Z,25.1060,-80.9420,1.5,36.21,11111222 
ENP,ioos.station.NOAA.NDBC:MUKF1:1,2019-07-11T11:00:00Z,25.1060,-80.9420,1.5,36.18,11111222 
ENP,ioos.station.NOAA.NDBC:MUKF1:1,2019-07-11T12:00:00Z,25.1060,-80.9420,1.5,36.19,11111222 
ENP,ioos.station.NOAA.NDBC:MUKF1:1,2019-07-11T13:00:00Z,25.1060,-80.9420,1.5,36.14,11111222 
ENP,ioos.station.NOAA.NDBC:MUKF1:1,2019-07-11T14:00:00Z,25.1060,-80.9420,1.5,36.06,11111222 
ENP,ioos.station.NOAA.NDBC:MUKF1:1,2019-07-11T15:00:00Z,25.1060,-80.9420,1.5,36.11,11111222 
ENP,ioos.station.NOAA.NDBC:MUKF1:1,2019-07-11T16:00:00Z,25.1060,-80.9420,1.5,35.94,11111222 
ENP,ioos.station.NOAA.NDBC:MUKF1:1,2019-07-11T17:00:00Z,25.1060,-80.9420,1.5,35.99,11111222 
ENP,ioos.station.NOAA.NDBC:MUKF1:1,2019-07-11T18:00:00Z,25.1060,-80.9420,1.5,36.02,11111222 
ENP,ioos.station.NOAA.NDBC:MUKF1:1,2019-07-11T19:00:00Z,25.1060,-80.9420,1.5,36.12,11111222 
ENP,ioos.station.NOAA.NDBC:MUKF1:1,2019-07-11T20:00:00Z,25.1060,-80.9420,1.5,36.17,11111222 
ENP,ioos.station.NOAA.NDBC:MUKF1:1,2019-07-11T21:00:00Z,25.1060,-80.9420,1.5,36.13,11111222 
ENP,ioos.station.NOAA.NDBC:MUKF1:1,2019-07-11T22:00:00Z,25.1060,-80.9420,1.5,36.35,11111222 
ENP,ioos.station.NOAA.NDBC:MUKF1:1,2019-07-11T23:00:00Z,25.1060,-80.9420,1.5,36.35,11111222 
ENP,ioos.station.NOAA.NDBC:MUKF1:1,2019-07-12T00:00:00Z,25.1060,-80.9420,1.5,36.34,11111222 
ENP,ioos.station.NOAA.NDBC:MUKF1:1,2019-07-12T01:00:00Z,25.1060,-80.9420,1.5,36.37,11111222 
ENP,ioos.station.NOAA.NDBC:MUKF1:1,2019-07-12T02:00:00Z,25.1060,-80.9420,1.5,36.15,11111222 
ENP,ioos.station.NOAA.NDBC:MUKF1:1,2019-07-12T03:00:00Z,25.1060,-80.9420,1.5,36.1,11111222 
ENP,ioos.station.NOAA.NDBC:MUKF1:1,2019-07-12T04:00:00Z,25.1060,-80.9420,1.5,36.17,11111222 
ENP,ioos.station.NOAA.NDBC:MUKF1:1,2019-07-12T05:00:00Z,25.1060,-80.9420,1.5,36.25,11111222 
ENP,ioos.station.NOAA.NDBC:MUKF1:1,2019-07-12T06:00:00Z,25.1060,-80.9420,1.5,36.09,11111222 
ENP,ioos.station.NOAA.NDBC:MUKF1:1,2019-07-12T07:00:00Z,25.1060,-80.9420,1.5,35.71,11111222 
ENP,ioos.station.NOAA.NDBC:MUKF1:1,2019-07-12T08:00:00Z,25.1060,-80.9420,1.5,35.38,11111222 
ENP,ioos.station.NOAA.NDBC:MUKF1:1,2019-07-12T09:00:00Z,25.1060,-80.9420,1.5,35.47,11111222 
ENP,ioos.station.NOAA.NDBC:MUKF1:1,2019-07-12T10:00:00Z,25.1060,-80.9420,1.5,35.44,11111222 
ENP,ioos.station.NOAA.NDBC:MUKF1:1,2019-07-12T11:00:00Z,25.1060,-80.9420,1.5,35.37,11111222 
ENP,ioos.station.NOAA.NDBC:MUKF1:1,2019-07-12T12:00:00Z,25.1060,-80.9420,1.5,35.47,11111222 
ENP,ioos.station.NOAA.NDBC:MUKF1:1,2019-07-12T13:00:00Z,25.1060,-80.9420,1.5,35.45,11111222 
ENP,ioos.station.NOAA.NDBC:MUKF1:1,2019-07-12T14:00:00Z,25.1060,-80.9420,1.5,35.6,11111222 
ENP,ioos.station.NOAA.NDBC:MUKF1:1,2019-07-12T15:00:00Z,25.1060,-80.9420,1.5,35.62,11111222 
ENP,ioos.station.NOAA.NDBC:MUKF1:1,2019-07-12T16:00:00Z,25.1060,-80.9420,1.5,35.66,11111222 
ENP,ioos.station.NOAA.NDBC:MUKF1:1,2019-07-12T17:00:00Z,25.1060,-80.9420,1.5,35.5,11111222 
ENP,ioos.station.NOAA.NDBC:MUKF1:1,2019-07-12T18:00:00Z,25.1060,-80.9420,1.5,35.64,11111222 
ENP,ioos.station.NOAA.NDBC:MUKF1:1,2019-07-12T19:00:00Z,25.1060,-80.9420,1.5,35.71,11111222 
ENP,ioos.station.NOAA.NDBC:MUKF1:1,2019-07-12T20:00:00Z,25.1060,-80.9420,1.5,35.79,11111222 
ENP,ioos.station.NOAA.NDBC:MUKF1:1,2019-07-12T21:00:00Z,25.1060,-80.9420,1.5,35.64,11111222 
ENP,ioos.station.NOAA.NDBC:MUKF1:1,2019-07-12T22:00:00Z,25.1060,-80.9420,1.5,35.57,11111222 
ENP,ioos.station.NOAA.NDBC:MUKF1:1,2019-07-12T23:00:00Z,25.1060,-80.9420,1.5,35.58,11111222 
ENP,ioos.station.NOAA.NDBC:MUKF1:1,2019-07-13T00:00:00Z,25.1060,-80.9420,1.5,35.71,11111222 